STARLINK-35760, 66274

Orbit data source: Space-Track

STARLINK-35760, 66274 is a payload satellite owned by SpaceX/Seattle (US) in LEO that was launched on Fri, 31 Oct 2025 UTC via an FALCON 9 launch vehicle from the Air Force Western Test Range (AFWTR). Payload-class satellites include a variety of spacecraft equipped with specific instruments for various scientific and technological missions. These include communications satellites like Starlink; space stations such as the ISS; scientific satellites like the Hubble; Earth observation satellites from companies like Planet Labs, Umbra, and HawkEye 360; GPS; miniature CubeSats for education and research; and military/defense satellites.

Loading next visibility...
Identifier
66274, 2025-247K
Orbit
LEO
Country
Flag of USUS
Related business
Manufacturer
SpaceX/Seattle
Mission
Operational Commercial Communications
Bus & Motor
STARLINK V2MO, Unknown motor
Mass
575 kg wet, ~530 kg dry
Launch date (UTC)
2025-10-31 (8 months ago)
Launch vehicle
FALCON 9
Launch site
Air Force Western Test Range (AFWTR)
Object type
Payload
Rocket body
Debris
Shape & HBR
Box + 2 Pan, 17.7 m
Radar Cross Section
36.964 m², Large (>1 m²)

Expand to show TLE details & history
Last TLE update: 9 hours ago

TLE from 9 hours ago
0 STARLINK-35760
1 66274U 25247K   26171.45475137  .00016293  00000-0  49212-3 0  9990
2 66274  53.1609  73.6768 0000631  58.7345 301.3720 15.34410299 36777
Epoch: 2026-06-20T10:54Z
TLE epoch observation values (Epoch: 2026-06-20T10:54:50.518Z)
Latitude
0.00004°
Longitude
1.2972°
Altitude
463.349 km
Speed
7.636 km/s
True Right ascension
04h 54m 42s
True Declination
0° 00' 00"
Sunlit
Object was in daylight at epoch
Visualization orbit readout
Latitude
Unknown
Longitude
Unknown
Altitude
Unknown
Speed
Unknown
Apparent Right ascension
Unknown
Apparent Declination
Unknown
Sunlit
N/A
Visualization observer readout
Local Sidereal Time
07:16:48
Azimuth
Unknown
Elevation
Unknown
Doppler factor
Unknown
Orbital elements
Apogee altitude
463.361 km
Perigee altitude
462.498 km
Semi-major axis
6,841.066 km
Eccentricity
0.00006
Inclination
53.1609°
RAAN
73.6768°
Arg. of periapsis
58.7345°
True anomaly
301.36583°
Mean anomaly
301.372°
Eccentric anomaly
301.36891°
Mean motion
3.83581 °/min
Orbital period
93.85 mins
BSTAR
0.00049212
Loading maneuver chart data...
Computing Atmospheric mass density...
Loading historical data...
Loading historical data...
Loading historical data...
Loading historical data...
Loading historical data...
Loading historical data...
Loading historical data...

Documentation

Showing up to 5 results
|